Wind_Speed
11 7 6 5 3 5 3 3 4 5 5 7 9 12 14 13 12 13 13 14 12 12 11 10 10 9 8 7 7 7 7 6 4 3 2 1 1 1 1 1 1 2 3
10 8 5 5 6 2 4 1 1 3 4 11 15 16 16 16 13 13 11 12 12 11 9 9 9 8 8 7 6 5 5 5 4 4 4 3 3 3 4 3 4 4 4
10 7 9 8 4 4 4 3 2 2 4 13 14 16 17 16 13 13 11 9 12 11 10 8 7 7 8 7 7 5 4 4 5 3 3 3 4 4 5 5 5 6 7
10 9 8 9 8 6 4 7 2 3 3 4 4 14 16 14 14 9 10 7 8 10 10 8 8 7 6 8 8 6 6 5 5 5 5 6 6 5 5 6 7 7 7
13 10 7 10 9 6 6 5 3 6 6 5 4 12 15 13 14 9 10 8 7 7 7 7 6 7 7 8 7 6 6 6 7 7 7 8 7 7 7 7 8 8 8
15 11 7 10 7 5 5 8 6 6 8 11 9 10 14 14 14 9 11 10 7 7 7 8 8 6 4 5 5 4 5 5 6 6 7 7 7 8 7 7 7 6 7
16 14 11 11 7 7 6 7 7 9 8 8 14 8 6 9 17 14 11 12 10 9 7 7 6 6 6 4 3 3 3 4 4 4 4 4 3 3 3 3 2 2 2
17 15 15 13 11 8 8 7 6 7 6 7 6 3 2 3 7 19 15 16 12 10 9 8 6 6 6 4 3 3 3 4 3 1 1 1 2 2 3 3 3 5 5
19 16 15 13 12 11 10 9 8 6 6 8 5 4 2 2 3 10 16 18 15 14 12 11 8 7 6 4 3 4 4 5 5 5 4 4 4 5 5 5 6 7 7
23 19 15 15 12 14 12 12 10 9 10 12 6 4 3 10 3 0 6 15 18 16 17 16 11 10 10 8 5 6 7 8 7 6 5 5 5 6 6 6 6 7 6
26 23 18 18 17 16 16 12 14 12 11 13 12 9 6 6 6 3 3 5 15 16 17 16 14 12 14 11 9 9 10 9 7 6 5 4 4 4 3 2 3 3 4
30 27 21 20 18 19 17 16 16 16 13 12 12 12 11 6 7 4 2 6 13 14 17 19 17 16 16 16 14 12 12 11 9 8 6 4 3 2 1 1 3 5 5
33 30 25 24 23 22 20 19 17 17 17 15 13 10 13 13 8 9 6 5 7 13 14 22 22 22 20 20 19 17 17 14 12 11 9 8 6 6 5 5 6 7 8
32 30 30 27 26 25 23 23 21 19 17 17 15 13 12 11 11 9 9 6 0 6 10 11 22 26 25 23 20 21 20 19 17 14 13 11 10 10 9 9 9 9 9
29 29 31 31 29 28 26 25 23 21 20 17 19 18 17 15 12 11 12 13 8 3 5 13 12 24 26 27 23 25 24 22 20 18 17 15 13 12 12 12 12 12 10
30 29 31 34 32 32 30 28 27 24 23 21 20 21 22 21 19 18 15 14 14 11 3 12 17 17 25 29 26 24 24 22 20 19 17 18 16 15 13 13 13 12 11
28 31 31 33 36 35 34 32 31 30 28 27 24 23 22 24 27 24 20 17 19 17 13 14 13 18 18 26 28 26 24 24 22 19 18 18 18 18 16 13 13 13 12
37 27 34 29 35 36 38 38 35 34 32 31 30 27 29 27 27 30 27 25 22 22 21 20 18 17 20 24 28 28 25 24 25 23 21 19 18 20 19 16 14 13 13
40 36 29 32 34 34 37 40 38 36 35 36 35 33 34 32 32 30 30 31 28 25 25 25 25 19 20 24 28 28 28 26 25 24 22 22 20 19 22 20 17 15 13
41 41 37 38 32 35 35 37 40 39 37 37 37 37 37 37 36 35 33 33 33 31 27 28 27 23 22 25 28 29 31 31 30 26 24 24 23 20 20 21 20 20 18
42 42 43 41 40 36 38 39 40 42 42 40 39 40 40 40 40 40 39 38 36 36 36 31 29 25 23 25 29 32 33 34 33 29 27 26 24 21 22 24 24 22 21
40 38 43 41 43 41 40 41 42 43 44 42 42 42 42 42 43 44 43 43 41 39 35 29 27 24 30 35 31 35 33 25 14 33 32 30 27 27 26 25 25 19 20
38 41 39 41 39 41 42 42 44 45 41 42 42 40 41 44 45 45 46 47 46 47 46 40 35 37 33 38 38 35 35 29 28 29 31 34 31 32 29 27 25 21 19
35 37 39 39 38 41 41 43 42 44 41 39 41 42 41 40 42 44 44 42 49 53 53 51 47 45 43 40 41 42 40 41 37 33 34 24 31 32 26 24 23 19 19
33 35 36 37 40 38 39 41 41 44 42 41 38 39 41 42 42 40 41 39 39 51 49 54 56 55 53 45 44 38 33 27 20 27 34 35 27 30 26 27 22 21 20
34 34 34 36 38 37 37 38 39 42 39 36 37 41 42 46 41 39 41 38 39 46 36 39 50 55 57 55 49 45 38 32 29 18 34 32 26 23 8 23 25 27 24
Wind_Direction
158 156 151 187 212 191 176 138 127 113 97 103 141 160 182 187 177 169 163 169 166 163 159 149 146 150 153 154 155 157 163 156 149 147 144 166 168 213 236 271 308 326 330
143 138 164 179 176 152 155 135 105 120 122 105 139 133 152 177 167 162 152 169 170 175 174 162 162 167 170 167 175 182 183 190 189 194 210 218 244 262 272 290 302 311 307
136 146 182 179 148 148 179 203 240 139 120 111 135 152 162 165 157 154 142 160 176 182 182 180 181 187 188 193 200 200 210 214 216 226 240 262 274 268 277 283 290 299 303
152 168 191 193 182 186 201 223 181 185 146 127 115 161 166 164 158 157 147 154 167 183 190 193 193 203 200 211 205 209 221 244 254 264 269 279 284 289 285 289 303 305 305
168 180 180 183 195 202 216 196 177 181 206 232 208 162 174 173 170 168 169 150 152 158 167 170 177 209 208 224 228 236 244 257 260 262 265 262 267 272 281 276 276 284 290
188 181 186 184 190 212 189 177 144 119 174 187 169 167 181 185 182 189 189 170 157 151 147 157 168 186 181 216 214 230 231 243 248 253 264 275 276 274 267 268 276 283 283
193 191 188 195 191 208 197 184 159 147 142 163 175 174 133 170 198 196 203 194 181 170 162 171 172 164 163 199 203 223 229 247 252 244 250 266 285 294 290 298 310 339 359
192 197 199 198 202 201 207 192 183 158 145 158 132 127 20 95 159 194 205 200 191 187 184 186 179 175 191 189 200 217 215 200 217 187 99 83 69 70 75 69 70 68 65
200 201 204 200 198 209 212 207 208 191 159 160 145 156 94 201 83 180 202 199 193 198 200 195 184 185 182 170 179 169 160 153 141 124 107 97 92 90 88 83 78 76 71
204 202 206 207 207 217 222 209 202 195 180 172 176 157 158 154 141 18 220 208 204 208 210 201 196 201 195 177 167 153 150 144 139 127 113 102 95 87 85 81 72 64 57
206 208 213 211 217 220 218 210 188 197 197 195 189 187 167 154 167 135 182 209 210 212 210 200 204 205 206 202 198 183 172 167 165 154 136 124 124 124 118 90 58 29 16
208 213 220 217 221 218 218 210 201 203 203 199 206 199 192 177 183 157 145 207 205 218 216 209 216 215 215 215 214 212 200 191 195 197 184 183 192 212 242 293 317 323 325
211 214 219 217 222 221 219 208 210 211 212 210 205 216 210 216 209 207 204 203 219 219 220 219 222 225 224 224 223 221 218 214 216 217 217 226 232 243 256 267 280 293 302
220 223 219 220 223 222 220 218 218 221 219 217 213 214 215 215 225 219 203 179 100 225 227 224 227 230 229 230 231 230 229 226 229 232 233 240 249 256 266 273 280 287 298
227 226 223 219 224 221 221 218 218 223 220 219 222 225 227 225 224 226 225 215 189 199 235 229 225 232 231 232 233 231 234 234 234 237 240 244 249 257 264 272 271 280 287
226 225 224 220 223 224 223 220 222 225 225 225 226 230 232 233 234 236 239 237 229 218 211 233 238 234 230 230 235 233 235 235 238 240 244 249 255 258 261 268 269 275 282
226 223 226 226 226 226 225 224 226 226 226 228 229 231 234 234 234 235 239 246 242 231 223 247 248 227 227 228 230 230 233 232 232 239 244 248 254 257 260 267 270 277 277
226 230 223 224 228 228 229 225 226 227 227 228 230 231 234 236 240 238 239 240 244 240 237 241 245 236 234 234 230 227 226 229 233 235 242 246 252 254 251 257 263 272 271
230 228 230 227 227 228 230 230 229 230 232 233 234 232 237 236 240 242 241 242 241 243 245 247 249 243 236 229 219 225 225 229 237 238 239 241 239 256 245 243 249 257 260
231 230 230 232 229 227 226 228 229 233 236 238 238 240 242 243 244 245 246 246 247 245 248 245 248 242 230 226 222 224 221 227 235 238 240 246 250 248 242 240 245 253 255
227 231 231 232 234 230 228 227 229 231 234 239 242 243 244 246 247 247 247 249 248 248 247 248 245 235 225 221 221 226 228 234 237 238 240 239 241 245 235 221 233 244 249
221 225 229 231 232 231 230 233 233 230 233 235 237 244 249 249 251 251 252 251 253 251 241 234 239 233 235 231 229 227 229 226 240 237 237 238 235 241 243 243 234 240 251
218 221 225 227 228 232 231 233 233 232 230 233 236 239 243 248 251 251 251 251 249 252 251 245 234 234 236 237 237 233 227 224 228 232 228 233 234 236 240 246 230 232 242
215 219 223 226 229 231 232 233 234 235 231 235 238 240 240 243 244 247 247 247 248 247 247 247 244 248 242 241 240 243 237 237 241 238 232 224 230 229 234 228 232 224 214
217 220 224 226 228 232 234 235 234 236 236 238 240 242 242 244 243 243 242 241 246 253 251 250 251 253 254 249 247 235 226 213 226 232 222 219 216 221 226 228 224 214 203
219 222 225 227 229 231 232 234 233 233 237 239 243 245 246 246 246 243 240 238 244 249 246 243 247 249 250 250 247 238 231 213 220 211 217 199 206 207 219 232 218 211 206
Height
850 849 850 852 853 854 855 855 856 855 856 856 855 856 858 860 862 863 863 863 865 866 867 869 872 873 874 875 876 876 876 876 877 879 879 879 879 878 877 876 875 874 873
849 850 851 852 854 855 855 855 855 856 857 857 857 857 859 861 863 862 862 864 867 868 869 871 873 873 874 875 876 877 877 877 878 877 877 877 878 878 878 877 876 875 874
849 850 852 853 854 855 856 857 857 857 857 857 859 859 861 862 862 862 863 864 865 868 870 873 873 874 875 877 876 877 878 878 877 878 878 878 877 878 878 877 877 876 875
848 850 852 853 854 856 857 857 858 857 857 858 861 861 862 863 864 864 866 866 867 869 871 873 874 873 876 875 875 876 877 878 879 879 878 877 878 878 877 877 877 876 876
848 850 851 853 854 855 856 856 857 859 859 859 860 862 863 864 865 865 868 868 868 870 871 872 874 873 874 874 875 877 876 877 877 877 876 874 875 876 876 875 874 874 874
847 850 851 853 854 855 855 857 857 858 858 859 860 862 864 864 864 866 868 869 869 870 872 873 874 873 874 874 875 875 876 875 875 874 873 875 875 875 874 873 872 872 872
847 849 851 852 853 854 856 857 858 858 859 859 861 862 864 865 865 867 869 870 870 871 872 873 875 874 874 874 875 875 875 875 874 874 874 874 875 874 874 874 873 873 872
846 848 850 851 852 854 856 857 858 859 859 860 860 863 865 866 865 867 868 870 870 872 872 873 873 874 874 874 875 874 874 875 874 875 875 875 875 874 874 875 874 874 873
845 847 849 851 852 853 855 856 857 858 858 859 860 861 867 869 867 869 869 870 870 871 872 873 873 873 874 874 874 873 873 874 874 875 875 875 875 875 875 875 875 875 874
843 845 847 849 851 852 853 855 857 858 858 858 859 859 861 863 868 873 869 870 871 871 871 872 872 873 873 874 874 874 874 875 875 876 876 876 876 877 877 877 877 877 876
841 843 845 846 848 850 851 854 855 856 857 857 858 860 861 863 864 866 873 870 870 871 871 870 871 872 872 872 873 873 874 875 875 875 874 875 876 877 877 878 878 877 877
837 840 842 844 846 847 849 851 853 855 856 856 857 859 860 861 863 864 866 867 867 867 868 869 870 870 871 871 872 873 874 874 874 874 874 875 875 875 877 877 877 877 877
832 835 838 841 842 845 847 849 852 853 853 854 856 857 859 859 860 861 862 862 863 864 865 866 866 867 868 869 870 871 872 872 871 871 873 872 873 873 874 874 875 875 875
827 831 834 837 839 842 844 846 849 851 853 854 855 856 857 857 859 859 859 860 863 863 863 861 862 863 865 866 866 869 869 870 870 871 870 870 870 871 871 872 873 873 873
823 826 829 832 835 838 841 844 846 848 850 852 853 853 854 856 856 857 857 857 857 863 861 858 858 858 860 861 863 865 866 866 866 867 867 867 868 869 869 869 870 870 871
818 821 824 827 830 833 837 840 842 844 847 848 850 851 852 853 854 852 853 855 856 856 859 855 853 854 855 857 859 861 862 863 864 864 865 866 867 867 867 866 866 866 866
812 816 819 822 825 828 832 836 837 839 840 843 845 847 848 849 846 848 850 852 852 853 852 851 851 852 852 853 855 856 857 858 860 860 861 862 862 864 865 864 864 864 863
807 809 813 817 820 823 825 827 830 833 835 837 839 842 842 843 843 844 845 846 848 849 848 847 848 848 849 850 850 852 854 854 854 855 856 857 858 858 859 860 861 861 861
800 805 808 811 813 815 817 821 825 828 829 831 832 834 834 837 838 840 841 842 843 845 845 843 842 844 844 844 845 847 849 850 850 850 851 850 851 852 852 853 855 855 856
794 798 800 803 805 808 811 815 819 821 823 824 826 828 829 831 833 835 836 836 837 839 839 839 839 840 840 841 841 841 842 842 842 844 844 845 847 846 848 850 850 850 851
786 790 793 796 799 802 805 808 811 813 815 817 818 820 822 822 824 826 828 828 830 831 832 833 834 834 833 834 834 835 836 837 837 839 839 841 842 843 841 835 840 843 844
776 781 784 787 790 793 796 800 803 806 807 809 811 812 813 815 816 818 818 821 822 823 823 825 826 826 824 824 826 827 829 831 832 831 832 833 835 834 835 834 835 837 839
768 771 775 778 780 783 787 791 795 797 799 800 801 803 804 805 805 806 807 809 811 810 810 812 811 811 811 811 815 817 816 817 818 818 822 821 824 825 827 830 829 830 832
759 762 765 768 771 773 778 782 786 789 791 792 792 792 794 794 795 796 798 798 798 797 799 802 800 796 796 801 804 805 805 808 809 810 813 814 816 814 817 822 827 824 826
751 753 756 758 760 763 769 774 780 782 782 783 784 784 783 783 784 789 791 790 789 782 787 788 787 787 789 790 793 797 796 800 800 799 801 803 804 809 811 812 818 821 819
741 745 746 748 750 754 759 764 769 772 772 774 776 773 772 772 776 781 782 783 778 768 777 775 773 775 777 778 780 781 784 784 785 787 786 792 796 804 807 807 810 813 815